INTELSAT 905 (IS-905)

Last updated on Tue Sep 15 2026 00:03:07 GMT+0000 (Coordinated Universal Time)

1 27438U 02027A 26257.56651221 .00000087 00000+0 00000+0 0 9998 2 27438 6.9724 68.6846 0003125 132.0382 219.5755 1.00272870 52257
UTC large
Height (km)
Speed (km/s)
/
Latitude / Longitude
Inclination (degrees)
Orbital Period (minutes)
Azimuth
Elevation
Range (km)
Doppler Factor

Next 0 passes for location: London (51.5072 / 0.1276)

No passes found over London.
INTELSAT 905 (IS-905)